Weather History for KBML - August, 2012

Change the Weather History Date:

Monday, August 13, 2012

  Actual Average Record
Temperature  
Mean Temperature 69 °F -  
Max Temperature 80 °F 76 °F 88 °F (2002)
Min Temperature 59 °F 49 °F 37 °F (2006)
Cooling Degree Days 4    
Growing Degree Days 19 (Base 50)    
Moisture  
Dew Point 62 °F    
Average Humidity 84    
Maximum Humidity 100    
Minimum Humidity 54    
Precipitation  
Precipitation 0.00 in - - ()
Sea Level Pressure  
Sea Level Pressure 29.93 in    
Wind  
Wind Speed 1 mph (SW)    
Max Wind Speed 7 mph    
Max Gust Speed -    
Visibility 6 miles    
Events Fog    
Averages and records for this station are not official NWS values.
T = Trace of Precipitation, MM = Missing Value Source: NWS Daily Summary

Daily Weather History Graph

Daily Weather History Graph

Search for Another Location

Airport or City:

Trip Planner

Search our weather history database for the weather conditions in past years. The results will help you decide how hot, cold, wet, or windy it might be!

Date:

Astronomy

Aug. 13, 2012 Rise Set
Actual Time 5:45 AM EDT 7:52 PM EDT
Civil Twilight 5:13 AM EDT 8:24 PM EDT
Nautical Twilight 4:34 AM EDT 9:03 PM EDT
Astronomical Twilight 3:50 AM EDT 9:46 PM EDT
Moon 1:40 AM EDT (8/13) 5:06 PM EDT (8/13)
Length of Visible Light 15h 10m
Length of Day
14h 07m
Waning Crescent, 16% of the Moon is Illuminated
Aug 13
Waning Crescent
Aug 17
New
Aug 24
First Quarter
Aug 31
Full
Sep 8
Last Quarter

Hourly Weather History & Observations

Time (EDT) Temp. Dew Point Humidity Pressure Visibility Wind Dir Wind Speed Gust Speed Precip Events Conditions
12:35 AM 64.4 °F 64.4 °F 100% 29.92 in 1.0 mi Calm Calm - N/A   Mist
12:43 AM 64.4 °F 64.4 °F 100% 29.92 in 0.2 mi Calm Calm - N/A Fog Fog
12:52 AM 64.0 °F 64.0 °F 100% 29.90 in 0.2 mi Calm Calm - N/A Fog Fog
1:02 AM 64.4 °F 64.4 °F 100% 29.92 in 0.2 mi Calm Calm - N/A Fog Fog
1:33 AM 64.4 °F 64.4 °F 100% 29.92 in 0.2 mi Calm Calm - N/A Fog Fog
1:52 AM 64.9 °F 64.0 °F 97% 29.91 in 0.5 mi Calm Calm - N/A Fog Fog
2:41 AM 64.4 °F 62.6 °F 94% 29.92 in 1.5 mi Calm Calm - N/A   Overcast
2:52 AM 64.0 °F 63.0 °F 96% 29.91 in 1.5 mi Calm Calm - N/A   Overcast
3:04 AM 62.6 °F 62.6 °F 100% 29.92 in 0.8 mi Calm Calm - N/A   Overcast
3:47 AM 62.6 °F 62.6 °F 100% 29.92 in 1.0 mi Calm Calm - N/A   Mist
3:52 AM 63.0 °F 62.1 °F 97% 29.91 in 0.2 mi SE 3.5 mph - N/A Fog Fog
4:52 AM 62.1 °F 61.0 °F 96% 29.92 in 0.2 mi Calm Calm - N/A Fog Fog
5:03 AM 62.6 °F 60.8 °F 94% 29.93 in 0.2 mi Calm Calm - N/A Fog Fog
5:52 AM 61.0 °F 60.1 °F 97% 29.94 in 0.2 mi Calm Calm - N/A Fog Fog
6:14 AM 59.0 °F 59.0 °F 100% 29.95 in 0.2 mi Calm Calm - N/A Fog Fog
6:52 AM 60.1 °F 59.0 °F 96% 29.95 in 0.2 mi Calm Calm - N/A Fog Fog
7:52 AM 62.1 °F 61.0 °F 96% 29.96 in 0.2 mi Calm Calm - N/A Fog Fog
8:25 AM 62.6 °F 60.8 °F 94% 29.97 in 1.0 mi Calm Calm - N/A   Overcast
8:32 AM 62.6 °F 60.8 °F 94% 29.97 in 2.0 mi Calm Calm - N/A   Overcast
8:41 AM 62.6 °F 62.6 °F 100% 29.97 in 5.0 mi Calm Calm - N/A   Overcast
8:52 AM 64.0 °F 62.1 °F 93% 29.96 in 10.0 mi Calm Calm - N/A   Mostly Cloudy
8:59 AM 64.4 °F 62.6 °F 94% 29.97 in 10.0 mi Calm Calm - N/A   Scattered Clouds
9:52 AM 71.1 °F 64.0 °F 78% 29.95 in 10.0 mi SSE 3.5 mph - N/A   Clear
10:10 AM 71.6 °F 64.4 °F 78% 29.96 in 10.0 mi SW 4.6 mph - N/A   Mostly Cloudy
10:18 AM 73.4 °F 62.6 °F 69% 29.96 in 10.0 mi Variable 3.5 mph - N/A   Scattered Clouds
10:49 AM 73.4 °F 62.6 °F 69% 29.95 in 10.0 mi SW 4.6 mph - N/A   Mostly Cloudy
10:52 AM 73.9 °F 62.1 °F 66% 29.94 in 10.0 mi Calm Calm - N/A   Mostly Cloudy
11:02 AM 75.2 °F 62.6 °F 65% 29.95 in 10.0 mi Calm Calm - N/A   Mostly Cloudy
11:52 AM 77.0 °F 60.1 °F 56% 29.93 in 10.0 mi WSW 5.8 mph - N/A   Scattered Clouds
12:52 PM 77.0 °F 60.1 °F 56% 29.92 in 10.0 mi Variable 6.9 mph - N/A   Overcast
1:52 PM 77.0 °F 61.0 °F 58% 29.92 in 10.0 mi Variable 3.5 mph - N/A   Mostly Cloudy
2:52 PM 78.1 °F 60.1 °F 54% 29.91 in 10.0 mi Variable 4.6 mph - N/A   Mostly Cloudy
3:52 PM 79.0 °F 61.0 °F 54% 29.91 in 10.0 mi Calm Calm - N/A   Clear
4:52 PM 79.0 °F 61.0 °F 54% 29.90 in 10.0 mi West 4.6 mph - N/A   Mostly Cloudy
5:52 PM 77.0 °F 60.1 °F 56% 29.91 in 10.0 mi Calm Calm - N/A   Mostly Cloudy
6:52 PM 75.9 °F 61.0 °F 60% 29.92 in 10.0 mi Calm Calm - N/A   Mostly Cloudy
7:52 PM 72.0 °F 64.0 °F 76% 29.93 in 10.0 mi Calm Calm - N/A   Scattered Clouds
8:52 PM 69.1 °F 64.0 °F 84% 29.94 in 10.0 mi Calm Calm - N/A   Mostly Cloudy
9:52 PM 66.0 °F 63.0 °F 90% 29.95 in 10.0 mi Calm Calm - N/A   Mostly Cloudy
10:52 PM 64.9 °F 63.0 °F 93% 29.95 in 10.0 mi Calm Calm - N/A   Overcast
11:52 PM 63.0 °F 61.0 °F 93% 29.96 in 10.0 mi Calm Calm - N/A   Overcast